Dewpoint
52 50 57 55 47 46 37 34 33 33 33 41 42 42 43 42 40 45 60 60 59 65 68 69 70 69 69 70 70 72 72 71 71 71 70 69 68 67 69 68 67 64 67 67 65 65 66 65 66
49 50 52 51 42 36 36 36 32 33 34 38 43 44 43 42 51 59 58 60 61 66 68 68 70 69 70 71 70 71 71 71 71 70 70 69 68 67 69 68 67 66 68 68 67 66 64 65 66
45 47 47 42 38 37 33 31 33 33 34 36 42 45 45 44 51 59 61 60 62 67 67 68 70 69 70 71 70 71 71 71 70 70 70 69 68 66 68 67 66 66 66 67 67 67 66 65 65
42 44 45 40 32 37 37 33 32 33 34 39 44 44 49 59 56 59 62 61 66 67 67 69 69 69 69 71 70 70 70 70 70 70 69 69 67 66 67 67 67 65 65 67 67 67 67 66 63
41 42 32 31 36 34 36 36 33 32 33 37 46 44 47 59 61 62 62 63 66 66 66 68 69 70 70 71 71 70 70 70 70 70 69 68 66 67 67 67 65 67 67 68 68 67 66 63 61
38 35 28 26 26 37 35 37 37 33 35 36 44 45 51 60 62 63 64 64 66 66 67 66 68 70 71 71 71 71 70 70 70 69 68 67 66 67 66 65 66 67 67 68 67 66 65 62 62
37 29 26 25 23 24 37 40 40 41 38 36 40 43 54 60 63 64 64 64 66 66 64 64 63 69 70 70 70 70 70 69 69 69 67 64 66 66 66 64 67 67 67 68 67 66 65 63 63
37 33 26 24 25 23 34 40 42 40 42 41 42 40 51 60 64 65 65 65 65 66 65 63 60 68 68 69 70 69 69 69 68 67 66 66 66 64 65 64 65 67 67 66 66 65 65 65 64
37 32 28 24 25 29 37 43 42 44 45 40 39 45 49 61 65 65 65 65 65 65 64 62 57 62 67 67 68 68 68 68 66 65 65 64 62 63 66 65 67 67 67 66 65 64 64 64 64
36 32 28 26 35 40 39 41 43 43 43 38 43 46 59 65 65 64 64 63 64 64 63 61 54 55 63 66 67 66 67 65 65 64 62 58 60 61 62 64 66 67 67 66 64 63 62 60 58
33 33 28 35 42 43 40 41 43 45 43 39 43 54 56 63 63 64 63 64 63 64 63 61 55 51 58 65 66 66 66 64 64 62 58 55 58 61 62 64 65 65 65 63 62 60 56 54 52
33 32 35 39 42 42 41 44 43 44 42 44 49 54 56 61 62 61 57 57 59 64 63 61 55 57 55 57 61 63 63 62 59 58 54 55 58 59 59 62 62 61 62 59 58 55 53 53 52
34 35 39 41 42 42 42 40 40 42 42 43 50 54 56 59 59 58 57 57 57 57 63 61 56 64 60 54 54 55 56 56 56 57 56 56 58 58 58 58 58 57 57 56 55 52 51 49 50
35 37 38 39 40 41 39 37 40 44 43 45 47 50 54 54 55 56 56 54 55 57 59 63 58 63 64 58 57 55 53 54 57 57 57 57 57 57 57 57 56 54 53 51 49 48 48 47 52
37 35 39 38 37 38 39 35 39 43 44 43 43 49 53 54 55 55 53 51 55 57 58 63 61 57 63 63 59 57 55 53 54 55 56 55 55 55 54 53 53 52 52 50 52 52 53 53 53
34 36 33 35 37 39 36 33 39 42 44 41 42 48 52 54 54 55 55 56 57 56 58 64 63 58 58 63 62 62 59 58 57 55 55 53 54 55 56 56 55 53 54 54 55 56 56 55 55
30 26 33 29 37 38 35 32 38 43 43 40 42 46 51 54 54 54 55 56 56 59 59 64 63 60 54 56 61 63 63 63 61 60 60 59 58 58 59 60 58 58 58 57 56 56 55 55 56
28 25 25 27 35 34 33 35 39 40 41 40 45 42 50 54 54 55 57 59 59 60 62 64 63 62 59 57 57 58 62 63 64 65 64 61 61 59 60 61 60 59 59 58 58 56 56 56 56
30 27 23 22 34 33 32 35 38 38 42 41 45 50 50 51 56 57 58 60 59 60 63 65 64 63 63 63 61 60 57 58 59 62 64 63 62 61 61 63 61 61 59 59 59 58 56 57 58
31 26 25 31 33 34 32 33 38 37 39 41 45 50 51 54 55 57 59 60 60 60 61 61 63 63 64 64 64 63 62 61 60 60 59 60 61 62 62 62 62 61 61 60 60 59 57 58 61
29 28 27 28 33 34 35 33 37 36 39 40 43 48 51 54 54 56 58 59 60 60 60 60 60 62 64 64 64 64 64 64 63 63 62 62 62 62 64 63 63 63 63 62 61 60 59 60 61
25 30 30 30 30 24 30 29 35 36 38 39 41 45 47 51 54 55 57 59 59 57 56 60 59 60 63 64 63 62 60 59 61 63 63 63 64 63 64 64 64 64 64 64 62 62 61 61 59
28 32 30 29 28 26 25 24 31 35 35 37 40 41 44 49 53 54 56 58 58 57 56 60 60 61 60 60 60 60 59 60 61 61 61 61 61 63 64 64 64 64 64 63 63 63 63 62 60
33 31 29 29 28 24 21 23 26 31 35 36 38 40 42 44 46 49 55 58 57 59 61 60 60 60 61 60 61 60 60 59 60 60 59 59 60 61 63 64 64 64 63 63 63 63 63 62 60
30 28 24 23 24 18 25 23 21 24 29 35 37 38 40 43 44 45 46 48 54 58 59 58 59 59 60 60 58 60 61 60 59 58 57 56 59 60 60 62 64 64 63 64 64 63 63 62 60
29 28 24 19 17 15 26 21 25 26 29 30 31 33 34 38 41 42 43 45 48 53 56 57 58 58 59 59 59 60 61 60 59 59 58 58 59 60 62 62 63 63 63 63 63 62 61 60 59
31 28 30 26 21 16 17 21 20 22 25 28 28 28 29 30 32 40 41 42 42 46 50 54 56 57 57 59 59 60 61 60 60 60 60 60 60 61 62 62 62 62 61 61 60 59 57 58 58
29 33 27 27 19 13 14 15 17 22 24 24 25 26 29 32 34 37 36 37 40 41 45 46 49 52 57 60 61 61 60 60 61 61 61 61 61 61 60 60 58 57 56 56 56 55 53 53 52
25 27 29 30 28 23 16 17 23 26 27 27 24 28 31 36 38 39 40 38 36 37 40 43 45 49 52 58 61 60 61 62 62 61 61 60 59 58 57 55 53 51 50 50 49 48 47 46 47
27 26 28 23 25 26 24 23 26 27 26 26 28 30 32 35 36 40 41 39 39 39 39 41 43 46 51 56 58 59 59 59 59 58 57 56 55 55 53 50 48 46 45 44 43 42 43 43 43
Wind_Speed
15 14 3 5 10 14 40 55 37 45 41 38 30 26 28 27 25 10 3 15 27 29 29 26 24 21 20 19 19 17 23 23 23 23 24 23 22 20 21 22 21 20 18 22 21 18 18 18 17
10 14 2 5 16 32 44 47 49 37 39 31 33 18 23 27 5 11 13 13 27 30 28 26 23 22 20 19 20 18 23 23 23 24 24 23 22 20 20 21 20 19 19 21 20 18 17 15 14
11 11 4 9 24 39 57 36 36 35 29 31 31 16 17 23 13 14 7 21 27 27 26 25 23 22 21 19 21 19 22 23 23 23 23 23 21 19 20 20 19 18 18 18 16 16 15 15 13
5 5 7 17 34 41 49 33 30 37 33 23 27 23 4 9 11 13 20 27 28 25 23 28 24 21 22 19 21 20 20 25 23 23 23 23 21 19 19 18 19 19 16 15 14 15 16 14 13
10 7 21 28 27 41 32 38 41 31 34 29 26 26 22 6 6 15 24 25 27 24 21 25 23 21 20 19 22 21 22 23 24 25 24 24 22 21 19 19 20 16 17 15 18 17 15 14 13
12 10 21 36 42 28 37 28 42 31 28 35 26 26 17 12 14 19 25 24 23 24 23 24 21 19 16 20 23 21 22 24 25 25 24 23 22 21 19 20 18 19 16 17 17 16 14 13 13
21 21 27 30 33 39 27 26 38 20 35 32 29 29 14 15 17 24 24 21 20 23 22 22 21 19 14 19 22 23 22 25 24 23 23 21 21 20 19 20 16 18 15 15 15 14 13 12 11
17 21 30 31 31 36 18 26 32 33 38 37 27 29 21 19 20 23 22 18 21 23 21 20 22 22 20 20 21 22 23 23 23 22 20 20 20 20 18 17 14 18 13 13 13 12 11 10 9
15 15 25 32 29 30 6 17 25 31 22 40 21 33 17 29 25 26 23 14 20 23 21 19 23 24 22 21 20 22 22 21 23 21 20 21 18 19 16 14 14 17 12 11 12 11 11 11 8
14 19 26 19 9 11 9 15 19 23 31 33 18 21 26 35 29 29 31 22 23 24 24 19 23 24 25 19 17 16 17 16 16 17 21 18 19 18 17 15 10 16 13 10 10 8 8 10 9
14 20 22 10 4 8 14 17 25 21 32 27 21 15 27 26 26 28 32 18 27 25 22 22 25 23 21 20 17 15 13 16 17 21 20 17 17 16 15 11 9 10 11 10 9 8 8 9 4
10 23 12 7 1 3 7 21 19 28 38 14 14 45 22 29 25 24 28 15 11 15 22 22 26 22 22 17 19 18 16 17 16 17 19 17 14 16 15 15 14 13 12 11 10 10 8 6 6
19 8 4 4 6 3 9 22 24 26 19 21 28 40 28 27 23 20 17 17 14 18 17 21 23 20 21 20 17 17 16 15 16 16 15 15 14 14 13 14 12 11 11 9 9 7 7 8 7
6 7 7 5 6 4 7 25 13 21 22 17 24 37 26 27 24 15 7 8 18 18 19 20 21 25 21 20 19 16 17 16 15 15 14 15 13 12 11 10 10 9 8 7 7 8 6 7 5
5 9 9 6 2 6 10 16 21 24 20 16 21 15 17 20 23 22 19 12 22 19 22 22 22 25 25 22 20 19 17 17 15 14 17 15 13 11 11 10 9 8 8 8 6 6 5 5 4
9 14 14 13 7 5 5 17 14 15 18 18 17 15 21 20 22 22 20 23 24 15 24 23 19 19 22 21 19 15 14 17 15 14 14 15 13 12 10 9 10 10 9 8 8 7 7 6 6
13 11 16 10 10 6 5 12 7 14 19 15 13 19 23 20 21 19 20 24 27 23 25 25 20 19 21 17 16 20 16 13 11 11 13 14 14 13 11 10 10 10 9 9 8 9 8 8 7
9 19 14 21 8 4 7 13 9 17 13 14 13 24 23 23 23 19 19 19 21 19 28 25 23 19 18 15 13 11 15 16 15 14 11 14 12 12 11 9 10 11 9 9 9 8 8 6 7
13 13 15 3 5 5 10 8 10 13 8 11 14 14 20 21 21 19 18 18 16 10 9 21 24 22 18 17 16 15 15 12 10 11 15 14 13 14 12 8 10 9 9 10 9 9 8 7 4
10 10 7 2 1 4 8 11 12 9 10 11 13 16 19 16 21 19 16 11 12 12 8 4 13 25 20 16 15 12 12 11 10 9 9 8 9 9 12 10 8 7 9 9 10 10 8 8 6
5 10 4 9 2 9 10 17 12 9 10 8 9 13 22 23 24 15 15 13 8 9 7 5 1 15 15 16 14 14 12 9 7 9 8 8 9 8 6 8 6 5 6 8 2 5 7 8 3
16 3 7 6 7 4 3 6 15 15 17 16 14 16 16 18 20 24 17 22 28 22 12 10 13 14 13 16 13 20 12 13 8 7 6 8 9 11 11 11 9 8 3 5 7 8 10 8 7
7 9 10 10 10 10 4 5 10 15 18 19 17 15 14 13 14 25 27 23 23 22 24 21 18 16 16 19 14 10 10 10 12 11 3 3 2 4 7 10 9 8 9 8 9 7 7 9 11
12 11 8 7 5 6 2 2 11 11 15 17 18 19 18 18 16 14 17 18 22 18 19 21 21 19 17 15 16 15 13 14 13 12 9 6 5 6 11 11 11 11 8 7 12 16 18 15 12
10 11 4 4 4 3 6 4 7 6 4 8 13 14 16 20 19 18 16 14 14 17 24 23 27 29 27 24 23 17 18 19 18 11 6 6 12 15 17 12 13 12 14 15 17 17 16 13 14
11 10 7 5 3 2 4 1 5 4 5 5 2 2 7 10 15 17 17 16 16 18 16 21 23 24 23 23 23 19 16 8 4 11 10 19 24 18 14 13 12 13 13 14 13 12 12 12 11
5 5 9 7 4 4 5 4 10 15 8 1 2 2 1 4 7 12 15 17 18 19 19 19 20 28 30 31 30 31 23 18 20 26 24 24 21 16 11 12 11 10 9 11 12 11 10 9 8
4 1 3 2 3 5 6 1 11 15 11 8 6 3 6 3 3 9 7 7 8 11 15 18 19 18 17 17 15 17 21 22 25 22 23 22 14 10 11 12 11 10 12 13 12 11 9 9 8
5 4 4 1 5 4 2 9 10 12 10 9 6 8 9 8 6 4 5 6 6 5 5 9 12 14 15 15 15 14 13 12 13 14 13 12 10 11 12 13 13 13 13 12 11 10 11 10 9
7 6 5 4 6 2 3 7 12 16 14 8 8 8 8 10 8 9 9 6 5 7 9 9 11 13 12 14 14 13 13 12 12 11 10 10 11 11 13 14 14 13 12 12 12 12 10 10 9
Wind_Direction
280 270 89 318 217 224 230 235 233 224 225 215 231 232 223 230 217 199 182 150 155 151 156 162 155 161 161 160 159 159 152 151 153 149 145 141 139 137 135 134 129 125 126 115 112 109 101 97 90
269 294 201 255 223 217 230 229 225 230 225 208 219 239 230 225 83 110 147 169 156 142 155 161 155 160 163 158 161 162 156 153 155 150 144 144 142 142 139 133 128 127 118 110 112 107 108 104 95
256 255 231 234 229 223 230 224 229 227 227 221 205 214 222 231 138 145 167 165 157 141 160 155 156 162 162 158 161 165 160 157 155 149 145 142 139 143 134 131 126 122 114 114 116 119 114 106 100
247 217 241 221 235 235 241 238 233 224 229 220 193 192 216 15 152 148 158 158 136 149 157 147 155 163 163 160 162 165 159 158 153 146 143 135 137 142 134 130 121 118 127 117 130 130 116 111 108
228 241 232 238 247 245 240 248 256 228 220 211 178 193 200 186 120 136 159 148 143 160 148 153 155 162 164 160 164 165 160 153 151 146 140 134 140 139 136 131 128 128 120 135 126 125 121 118 114
221 234 234 232 239 229 249 236 260 258 214 221 189 187 186 146 167 153 161 149 152 151 151 153 155 161 157 160 161 160 155 152 147 141 137 135 142 139 141 138 141 124 135 137 130 128 122 120 115
233 223 235 244 244 246 256 296 260 275 255 220 205 207 174 162 162 155 159 157 159 145 154 157 159 154 143 151 153 154 150 145 140 137 132 146 141 141 145 151 142 133 136 131 131 129 125 124 120
230 242 244 236 242 258 228 290 270 254 255 262 230 215 179 164 162 148 155 172 157 149 149 158 156 159 151 145 134 133 137 138 132 129 131 135 136 143 148 153 149 133 132 127 126 127 125 125 127
240 232 239 236 230 261 250 283 261 262 242 263 278 217 178 159 164 150 142 188 157 158 153 163 160 169 156 142 132 125 129 130 124 125 136 141 148 152 147 161 147 130 130 131 129 129 127 126 129
214 232 243 248 189 307 277 283 287 283 263 261 257 245 121 145 164 154 151 186 166 161 160 170 163 169 165 148 146 137 137 135 133 140 155 166 150 149 164 142 142 137 133 135 135 139 150 179 160
219 242 247 177 195 312 352 335 250 265 251 249 247 211 144 155 169 160 156 185 179 163 159 178 163 165 172 154 158 152 158 157 157 158 172 158 154 145 148 138 159 149 159 165 164 165 190 217 199
225 234 268 181 204 303 319 315 278 241 245 236 271 310 169 167 161 140 109 43 12 184 171 175 168 152 160 166 175 165 175 179 159 163 174 156 147 165 155 163 172 171 187 179 187 192 193 194 206
227 209 228 166 123 50 325 310 290 260 252 241 233 275 159 169 158 140 129 115 359 322 184 178 166 148 170 166 165 165 170 170 167 166 163 160 152 169 160 168 172 179 187 183 189 199 188 208 203
270 193 193 145 119 127 308 305 295 250 252 224 247 277 155 184 169 152 120 98 300 290 288 182 177 158 169 168 157 170 158 165 162 164 167 163 162 164 171 164 173 181 184 185 195 204 202 204 199
243 192 181 189 132 150 303 311 228 250 266 291 278 254 175 184 170 164 142 109 247 247 251 193 186 175 167 167 171 170 167 157 163 163 171 168 161 161 167 172 171 181 188 187 194 197 201 212 214
221 238 238 188 188 211 43 302 311 234 252 257 251 211 193 166 175 163 147 189 217 234 248 187 181 174 186 167 160 164 176 159 162 166 165 169 165 164 170 169 180 183 181 187 187 186 202 208 206
217 239 227 230 203 192 198 284 314 298 235 262 249 202 184 154 179 171 163 193 197 201 232 180 174 175 177 175 177 158 165 160 158 164 165 173 176 178 184 183 183 181 186 188 197 195 205 198 209
292 224 233 220 185 214 273 275 289 312 237 246 245 200 173 170 176 168 185 198 194 207 194 167 169 177 164 158 156 160 168 168 165 172 191 178 182 187 196 194 189 187 196 202 201 204 208 216 209
288 272 263 216 143 239 245 259 223 278 216 224 197 202 174 177 166 169 184 191 193 200 216 163 174 177 158 154 156 162 167 164 171 175 183 186 191 191 193 207 212 195 210 211 213 212 202 206 216
282 272 259 47 205 256 292 282 216 215 215 207 199 203 167 143 158 167 170 186 164 198 225 113 187 169 166 157 155 157 151 155 164 167 180 190 196 207 200 203 228 218 217 225 222 207 204 207 166
284 296 331 311 167 247 282 259 202 186 200 181 191 188 167 157 148 160 156 175 130 145 241 239 250 159 157 159 151 140 127 121 149 165 171 180 192 194 206 222 205 238 256 262 260 210 217 193 165
298 4 295 295 271 317 331 326 187 169 192 187 178 178 183 183 172 161 196 183 159 165 256 200 214 228 168 156 161 149 155 145 153 168 180 185 200 203 201 214 211 221 220 189 225 238 226 181 180
302 325 296 289 281 313 196 271 136 172 197 191 185 180 179 181 181 175 192 184 171 173 200 188 197 213 211 189 157 170 167 160 147 135 125 92 264 252 208 211 212 208 202 204 215 207 197 192 179
298 278 257 271 259 276 14 283 136 192 200 195 191 175 174 174 179 198 197 182 182 177 176 176 188 201 197 193 187 191 189 172 163 160 166 236 238 244 227 211 211 198 193 207 215 204 220 204 196
263 278 250 221 235 277 41 289 3 23 340 197 194 179 168 176 178 176 182 185 188 189 183 189 189 198 200 214 226 215 201 185 173 183 178 298 273 239 235 224 217 206 201 214 220 212 214 199 193
305 280 266 268 283 176 104 243 46 26 0 117 88 301 143 184 182 174 182 183 190 201 211 193 200 208 203 205 223 231 225 212 169 234 218 218 241 240 227 223 225 208 198 199 197 198 196 177 165
341 268 326 305 292 327 137 143 77 48 50 268 249 121 215 187 217 194 176 184 186 189 198 194 209 217 209 206 210 219 223 201 205 212 224 221 224 224 208 205 197 186 165 164 174 167 167 161 165
308 12 311 242 257 227 145 127 49 28 15 20 61 58 94 81 167 181 183 184 184 180 190 190 191 207 187 186 201 198 212 201 202 200 210 216 220 186 182 169 159 153 146 150 148 141 138 147 155
356 30 6 164 293 318 343 69 10 13 1 339 21 57 74 73 74 127 144 145 165 174 163 198 193 191 187 177 178 180 178 170 172 183 182 176 163 160 161 150 152 149 149 147 143 147 160 161 160
49 64 23 3 358 341 297 69 53 40 35 31 28 44 58 67 59 62 70 87 120 161 165 198 192 178 183 173 169 170 161 162 173 158 146 154 162 164 164 157 152 146 145 153 151 148 148 159 163